FLOCK 4S-1 (47543 NORAD) Tracking and Keplerian Element Data

This shows tracking and keplerian element data for the satellite.

Feedback or suggestion? Click here.




ElementValue
Catalog47543
NameFLOCK 4S-1
Epoch Orbit1073
Epoch Day99.75269727
Epoch Year2021
RAAN162.1472
Inclination97.4941
Eccentricity0.0009874
Argument of Perigee342.7085
Mean Anonmoly17.3808
Mean Motion15.12695104
Decay Rate1.784E-05
L11 47543U 21006ED 21099.75269727 .00001784 00000-0 10554-3 0 9996
L22 47543 97.4941 162.1472 0009874 342.7085 17.3808 15.12695104 10731

Live tracking and technical data element details for FLOCK 4S-1 (NORAD 47543). FLOCK 4S-1 can be tracked NOW for your location showing map with azimuth and elevation plus other details from your city location.

Track the satellite on the map from your city or location and see movement details for azimuth, elevation, latitude, longitude, range, height, and movement on the map or in text.







IsCatalogInMostPopularTable: catalog: 47543, numindb: 13
Update: records affected: 1



GetName: 47543 FLOCK 4S-1

Hit Count: updated at: Sat, 10 Apr 2021 18:16:29 GMT